Weather reports worldwide

Advertisment
Ponza, Italy (16280): temperature & dewpoint: 17.04.2018 01:00:00 - 23.04.2018 01:00:00 (CEST)Ponza, Italy (16280): wind speed: 17.04.2018 01:00:00 - 23.04.2018 01:00:00 (CEST)Ponza, Italy (16280): wind direction: 17.04.2018 01:00:00 - 23.04.2018 01:00:00 (CEST)Ponza, Italy (16280): reduced air pressure: 17.04.2018 01:00:00 - 23.04.2018 01:00:00 (CEST)Ponza, Italy (16280): visibility: 17.04.2018 01:00:00 - 23.04.2018 01:00:00 (CEST)Ponza, Italy (16280): sunshine duration: 17.04.2018 01:00:00 - 23.04.2018 01:00:00 (CEST)
Date & Time tt [°C] td [°C] ff [km/h] ff [kn] dd ppp [hPa] vv [km] sd [min]
23.04.2018 01:00:00 16,0 15,0 9 5 W 1018,0 10 -
23.04.2018 00:00:00 16,4 15,4 9 5 W 1017,9 10 -
22.04.2018 23:00:00 16,8 15,8 13 7 W 1017,6 10 -
22.04.2018 22:00:00 16,8 15,7 11 6 W 1017,2 10 -
22.04.2018 21:00:00 17,2 16,2 9 5 W 1016,9 10 -
22.04.2018 20:00:00 18,2 17,4 11 6 W 1016,8 10 24
22.04.2018 19:00:00 18,6 17,4 13 7 W 1016,7 10 60
22.04.2018 18:00:00 19,8 18,5 8 4 W 1016,6 10 60
22.04.2018 17:00:00 20,4 17,4 8 4 W 1016,7 10 60
22.04.2018 16:00:00 20,4 17,2 4 2 SSW 1017,6 10 60
22.04.2018 15:00:00 20,4 17,0 8 4 S 1017,7 10 60
22.04.2018 14:00:00 21,8 20,8 4 2 SSW 1017,6 10 -
22.04.2018 13:00:00 - - - - - - - -
22.04.2018 12:00:00 19,0 17,3 4 2 SE 1018,6 8 60
22.04.2018 11:00:00 16,8 16,5 5 3 SE 1018,2 6 60
22.04.2018 10:00:00 15,0 14,8 9 5 ESE 1017,4 0,6 30
22.04.2018 09:00:00 15,8 15,5 8 4 ESE 1017,3 0,7 12
22.04.2018 08:00:00 16,0 15,7 15 8 ESE 1017,1 0,8 0
22.04.2018 07:00:00 16,4 15,8 4 2 ENE 1017,2 0,6 0
22.04.2018 06:00:00 16,2 15,7 5 3 E 1017,2 10 -
22.04.2018 05:00:00 16,2 15,6 9 5 E 1017,3 10 -
22.04.2018 04:00:00 - - - - - - - -
22.04.2018 03:00:00 17,6 15,6 8 4 WSW 1017,7 10 -
22.04.2018 02:00:00 17,6 15,6 9 5 WSW 1017,7 10 -
22.04.2018 01:00:00 18,0 16,3 5 3 E 1017,7 10 -
22.04.2018 00:00:00 18,6 15,8 8 4 SSE 1017,7 10 -
21.04.2018 23:00:00 18,8 15,3 9 5 E 1017,3 10 -
21.04.2018 22:00:00 19,4 13,4 4 2 SSE 1017,4 10 -
21.04.2018 21:00:00 19,6 15,7 0 0 N 1017,3 10 -
21.04.2018 20:00:00 19,6 13,8 5 3 SSW 1017,2 10 0
21.04.2018 19:00:00 19,8 14,2 0 0 N 1017,4 10 0
21.04.2018 18:00:00 20,0 17,4 8 4 SSW 1017,6 10 60
21.04.2018 17:00:00 20,8 17,8 0 0 N 1017,7 10 60
21.04.2018 16:00:00 21,0 18,8 9 5 S 1018,1 10 60
21.04.2018 15:00:00 22,8 20,2 0 0 N 1018,2 9 60
21.04.2018 14:00:00 20,0 18,7 0 0 N 1018,4 8 60
21.04.2018 13:00:00 19,4 18,4 5 3 ESE 1018,6 8 60
21.04.2018 12:00:00 19,8 19,0 4 2 E 1018,6 7 60
21.04.2018 11:00:00 19,0 18,2 4 2 E 1018,6 4,0 60
21.04.2018 10:00:00 20,0 18,1 4 2 E 1017,7 9 60
21.04.2018 09:00:00 19,0 17,7 0 0 N 1017,8 9 60
21.04.2018 08:00:00 17,8 16,7 0 0 N 1017,9 9 60
21.04.2018 07:00:00 16,2 15,6 9 5 NNW 1017,9 9 6
21.04.2018 06:00:00 17,4 16,2 5 3 NNW 1017,6 10 -
21.04.2018 05:00:00 17,2 15,7 5 3 NNW 1017,6 10 -
21.04.2018 04:00:00 19,2 15,1 8 4 NW 1017,6 10 -
21.04.2018 03:00:00 18,2 13,7 8 4 NNW 1017,7 10 -
21.04.2018 02:00:00 18,0 13,3 8 4 NW 1017,7 10 -
21.04.2018 01:00:00 17,6 14,1 9 5 NW 1017,8 10 -
21.04.2018 00:00:00 17,0 13,5 13 7 NW 1018,0 10 -
20.04.2018 23:00:00 17,2 14,7 11 6 WNW 1017,9 10 -
20.04.2018 22:00:00 17,5 16,2 11 6 W 1017,9 10 -
20.04.2018 21:00:00 18,4 17,1 16 9 NW 1017,9 10 -
20.04.2018 20:00:00 18,8 15,9 13 7 W 1017,5 15 -
20.04.2018 19:00:00 19,6 16,2 8 4 W 1017,6 20 60
20.04.2018 18:00:00 20,2 16,0 11 6 W 1017,7 20 60
20.04.2018 17:00:00 20,6 17,0 8 4 W 1018,3 20 60
20.04.2018 16:00:00 21,2 17,2 5 3 W 1018,5 20 60
20.04.2018 15:00:00 21,0 16,2 5 3 W 1019,6 20 60
20.04.2018 14:00:00 21,0 17,4 5 3 W 1019,8 20 60
20.04.2018 13:00:00 22,0 16,3 0 0 N 1019,7 20 60
20.04.2018 12:00:00 23,0 16,8 0 0 N 1020,0 20 60
20.04.2018 11:00:00 22,6 16,2 0 0 N 1019,8 20 60
20.04.2018 10:00:00 20,8 14,2 0 0 N 1019,7 20 60
20.04.2018 09:00:00 20,0 14,4 0 0 N 1019,7 20 60
20.04.2018 08:00:00 19,2 14,0 0 0 N 1019,9 15 60
20.04.2018 07:00:00 19,0 13,4 0 0 N 1019,9 20 36
20.04.2018 06:00:00 - - - - - - - -
20.04.2018 05:00:00 18,6 14,3 9 5 WNW 1020,2 15 -
20.04.2018 04:00:00 18,4 13,9 8 4 WNW 1020,9 20 -
20.04.2018 03:00:00 18,2 14,1 9 5 WNW 1020,8 10 -
20.04.2018 02:00:00 18,2 13,9 8 4 WNW 1021,1 15 -
20.04.2018 01:00:00 18,0 14,7 9 5 NW 1021,2 15 -
20.04.2018 00:00:00 18,0 14,1 9 5 NW 1021,3 15 -
19.04.2018 23:00:00 17,6 15,2 11 6 WNW 1021,9 20 -
19.04.2018 22:00:00 16,6 15,6 18 10 NW 1022,0 15 -
19.04.2018 21:00:00 16,4 15,6 22 12 WNW 1021,8 15 -
19.04.2018 20:00:00 17,0 15,7 26 14 NW 1021,8 20 36
19.04.2018 19:00:00 17,8 16,0 16 9 WNW 1021,9 20 60
19.04.2018 18:00:00 19,8 16,1 15 8 WNW 1021,7 20 60
19.04.2018 17:00:00 19,8 15,0 11 6 W 1021,7 20 60
19.04.2018 16:00:00 21,0 15,3 0 0 N 1022,5 15 60
19.04.2018 15:00:00 22,0 16,5 0 0 N 1022,6 15 60
19.04.2018 14:00:00 23,0 17,2 4 2 E 1022,7 15 60
19.04.2018 13:00:00 22,4 16,0 0 0 N 1023,4 20 60
19.04.2018 12:00:00 22,4 16,7 5 3 E 1023,4 20 60
19.04.2018 11:00:00 21,0 16,0 0 0 N 1023,1 20 60
19.04.2018 10:00:00 19,6 15,2 9 5 E 1022,9 20 60
19.04.2018 09:00:00 18,2 14,5 9 5 E 1023,1 20 60
19.04.2018 08:00:00 16,0 14,0 5 3 NE 1023,0 20 24
19.04.2018 07:00:00 16,0 14,4 9 5 E 1023,0 20 -
19.04.2018 06:00:00 16,0 14,4 9 5 NNE 1022,8 20 -
19.04.2018 05:00:00 16,2 14,2 5 3 NE 1023,0 30 -
19.04.2018 04:00:00 16,4 14,1 8 4 NE 1023,1 30 -
19.04.2018 03:00:00 17,0 14,5 5 3 NE 1023,1 30 -
19.04.2018 02:00:00 17,0 14,7 5 3 NE 1023,3 30 -
19.04.2018 01:00:00 16,8 14,8 8 4 NE 1023,1 30 -
19.04.2018 00:00:00 16,8 15,0 8 4 NE 1023,1 30 -
18.04.2018 23:00:00 16,6 15,0 9 5 NE 1022,9 20 -
18.04.2018 22:00:00 16,8 15,2 11 6 N 1022,9 30 0
18.04.2018 21:00:00 17,2 15,5 13 7 NNW 1022,6 20 -
18.04.2018 20:00:00 18,2 14,1 11 6 WNW 1021,9 20 0
18.04.2018 19:00:00 18,0 15,6 5 3 WNW 1021,8 20 48
18.04.2018 18:00:00 19,2 16,6 5 3 N 1021,7 20 60
18.04.2018 17:00:00 20,8 17,6 5 3 N 1021,7 20 60
18.04.2018 16:00:00 21,8 16,7 8 4 ENE 1021,6 20 60
18.04.2018 15:00:00 21,6 16,5 9 5 E 1021,6 20 60
18.04.2018 14:00:00 20,2 15,8 11 6 S 1022,0 20 24
18.04.2018 13:00:00 21,0 16,4 9 5 E 1021,8 10 30
18.04.2018 12:00:00 20,4 15,4 9 5 ENE 1021,7 10 60
18.04.2018 11:00:00 19,4 15,3 5 3 ENE 1021,8 10 60
18.04.2018 10:00:00 18,0 15,1 8 4 ENE 1021,2 10 48
18.04.2018 09:00:00 16,0 13,8 9 5 E 1021,2 10 12
18.04.2018 08:00:00 15,0 14,0 5 3 E 1020,9 10 0
18.04.2018 07:00:00 14,6 13,8 8 4 E 1020,4 10 0
18.04.2018 06:00:00 14,6 13,8 5 3 E 1020,3 10 -
18.04.2018 05:00:00 15,0 13,9 9 5 E 1020,1 10 -
18.04.2018 04:00:00 - - - - - - - -
18.04.2018 03:00:00 14,8 14,0 8 4 SSE 1020,0 10 -
18.04.2018 02:00:00 15,0 14,4 5 3 SSE 1020,2 10 -
18.04.2018 01:00:00 15,0 14,2 11 6 SE 1019,5 10 -
18.04.2018 00:00:00 14,8 13,8 8 4 ESE 1019,3 10 -
17.04.2018 23:00:00 14,8 13,8 5 3 E 1019,2 10 -
17.04.2018 22:00:00 14,8 14,3 8 4 E 1019,1 10 -
17.04.2018 21:00:00 14,6 13,8 9 5 E 1019,0 10 -
17.04.2018 20:00:00 15,0 14,0 8 4 E 1018,7 10 0
17.04.2018 19:00:00 16,6 15,3 9 5 E 1017,7 10 0
17.04.2018 18:00:00 16,0 14,7 5 3 E 1017,8 10 0
17.04.2018 17:00:00 16,8 15,7 8 4 SW 1017,8 10 0
17.04.2018 16:00:00 17,2 15,9 11 6 SSW 1018,8 10 0
17.04.2018 15:00:00 18,0 16,2 8 4 SSW 1019,0 10 0
17.04.2018 14:00:00 17,2 15,2 9 5 SSW 1019,0 10 12
17.04.2018 13:00:00 17,6 15,8 5 3 E 1018,7 9 0
17.04.2018 12:00:00 - - - - - - - -
17.04.2018 11:00:00 17,8 16,7 4 2 E 1017,8 8 60
17.04.2018 10:00:00 17,0 16,5 2 1 E 1017,6 6 6
17.04.2018 09:00:00 14,2 13,7 4 2 E 1017,2 7 60
17.04.2018 08:00:00 13,8 13,5 5 3 N 1017,0 6 0
17.04.2018 07:00:00 13,6 13,3 8 4 W 1015,9 6 -
17.04.2018 06:00:00 13,8 13,5 8 4 W 1015,9 6 -
17.04.2018 05:00:00 13,4 13,1 11 6 WNW 1016,0 4,0 -
17.04.2018 04:00:00 14,0 13,7 11 6 WNW 1015,7 7 -
17.04.2018 03:00:00 14,0 13,7 11 6 WNW 1015,7 10 -
17.04.2018 02:00:00 14,0 13,7 13 7 WNW 1015,5 10 -
17.04.2018 01:00:00 14,2 13,9 15 8 SW 1014,8 10 -

tt = temperature
td = dewpoint
ff = wind speed
dd = wind direction
ppp = reduced air pressure
vv = visibility
sd = sunshine duration

Next stations